<?xml version="1.0"?>
<gpx xmlns="http://www.topografix.com/GPX/1/1" xmlns:xsi="http://www.w3.org/2001/XMLSchema-instance" version="1.1" creator="GPX RubyGem 1.0.0 -- http://dougfales.github.io/gpx/" xsi:schemaLocation="http://www.topografix.com/GPX/1/1 http://www.topografix.com/GPX/1/1/gpx.xsd">
  <metadata>
    <name/>
    <time>2026-05-09T02:59:25+00:00</time>
    <bound minlat="90.0" minlon="180.0" maxlat="-90.0" maxlon="-180.0"/>
  </metadata>
  <trk>
    <name/>
    <trkseg>
      <trkpt lat="48.425931" lon="8.274837">
        <time>1970-01-01T00:00:00+00:00</time>
        <ele>738.0</ele>
      </trkpt>
      <trkpt lat="48.42586" lon="8.275018">
        <time>1970-01-01T00:00:00+00:00</time>
        <ele>729.0</ele>
      </trkpt>
      <trkpt lat="48.425719" lon="8.275447">
        <time>1970-01-01T00:00:00+00:00</time>
        <ele>721.0</ele>
      </trkpt>
      <trkpt lat="48.425413" lon="8.27634">
        <time>1970-01-01T00:00:00+00:00</time>
        <ele>717.0</ele>
      </trkpt>
      <trkpt lat="48.425293" lon="8.276747">
        <time>1970-01-01T00:00:00+00:00</time>
        <ele>710.0</ele>
      </trkpt>
      <trkpt lat="48.425176" lon="8.277172">
        <time>1970-01-01T00:00:00+00:00</time>
        <ele>706.0</ele>
      </trkpt>
      <trkpt lat="48.425074" lon="8.277618">
        <time>1970-01-01T00:00:00+00:00</time>
        <ele>704.0</ele>
      </trkpt>
      <trkpt lat="48.424886" lon="8.278637">
        <time>1970-01-01T00:00:00+00:00</time>
        <ele>697.0</ele>
      </trkpt>
      <trkpt lat="48.424856" lon="8.278907">
        <time>1970-01-01T00:00:00+00:00</time>
        <ele>695.0</ele>
      </trkpt>
      <trkpt lat="48.424797" lon="8.279678">
        <time>1970-01-01T00:00:00+00:00</time>
        <ele>688.0</ele>
      </trkpt>
      <trkpt lat="48.424755" lon="8.28009">
        <time>1970-01-01T00:00:00+00:00</time>
        <ele>686.0</ele>
      </trkpt>
      <trkpt lat="48.42472" lon="8.2803">
        <time>1970-01-01T00:00:00+00:00</time>
        <ele>684.0</ele>
      </trkpt>
      <trkpt lat="48.424482" lon="8.281335">
        <time>1970-01-01T00:00:00+00:00</time>
        <ele>680.0</ele>
      </trkpt>
      <trkpt lat="48.424402" lon="8.281675">
        <time>1970-01-01T00:00:00+00:00</time>
        <ele>679.0</ele>
      </trkpt>
      <trkpt lat="48.424395" lon="8.281766">
        <time>1970-01-01T00:00:00+00:00</time>
        <ele>679.0</ele>
      </trkpt>
      <trkpt lat="48.424333" lon="8.282498">
        <time>1970-01-01T00:00:00+00:00</time>
        <ele>680.0</ele>
      </trkpt>
      <trkpt lat="48.424358" lon="8.28254">
        <time>1970-01-01T00:00:00+00:00</time>
        <ele>680.0</ele>
      </trkpt>
      <trkpt lat="48.424374" lon="8.282665">
        <time>1970-01-01T00:00:00+00:00</time>
        <ele>682.0</ele>
      </trkpt>
      <trkpt lat="48.424344" lon="8.28288">
        <time>1970-01-01T00:00:00+00:00</time>
        <ele>686.0</ele>
      </trkpt>
      <trkpt lat="48.424173" lon="8.283866">
        <time>1970-01-01T00:00:00+00:00</time>
        <ele>690.0</ele>
      </trkpt>
      <trkpt lat="48.424069" lon="8.284331">
        <time>1970-01-01T00:00:00+00:00</time>
        <ele>694.0</ele>
      </trkpt>
      <trkpt lat="48.424057" lon="8.284404">
        <time>1970-01-01T00:00:00+00:00</time>
        <ele>695.0</ele>
      </trkpt>
      <trkpt lat="48.424039" lon="8.284513">
        <time>1970-01-01T00:00:00+00:00</time>
        <ele>696.0</ele>
      </trkpt>
      <trkpt lat="48.423957" lon="8.285218">
        <time>1970-01-01T00:00:00+00:00</time>
        <ele>693.0</ele>
      </trkpt>
      <trkpt lat="48.42398" lon="8.285418">
        <time>1970-01-01T00:00:00+00:00</time>
        <ele>695.0</ele>
      </trkpt>
      <trkpt lat="48.424059" lon="8.285769">
        <time>1970-01-01T00:00:00+00:00</time>
        <ele>703.0</ele>
      </trkpt>
      <trkpt lat="48.424054" lon="8.285943">
        <time>1970-01-01T00:00:00+00:00</time>
        <ele>705.0</ele>
      </trkpt>
      <trkpt lat="48.424043" lon="8.285994">
        <time>1970-01-01T00:00:00+00:00</time>
        <ele>705.0</ele>
      </trkpt>
      <trkpt lat="48.424051" lon="8.286078">
        <time>1970-01-01T00:00:00+00:00</time>
        <ele>707.0</ele>
      </trkpt>
      <trkpt lat="48.424048" lon="8.286402">
        <time>1970-01-01T00:00:00+00:00</time>
        <ele>715.0</ele>
      </trkpt>
      <trkpt lat="48.424055" lon="8.286522">
        <time>1970-01-01T00:00:00+00:00</time>
        <ele>720.0</ele>
      </trkpt>
      <trkpt lat="48.424023" lon="8.286646">
        <time>1970-01-01T00:00:00+00:00</time>
        <ele>722.0</ele>
      </trkpt>
      <trkpt lat="48.424009" lon="8.28674">
        <time>1970-01-01T00:00:00+00:00</time>
        <ele>724.0</ele>
      </trkpt>
      <trkpt lat="48.423935" lon="8.286947">
        <time>1970-01-01T00:00:00+00:00</time>
        <ele>725.0</ele>
      </trkpt>
      <trkpt lat="48.423886" lon="8.28702">
        <time>1970-01-01T00:00:00+00:00</time>
        <ele>724.0</ele>
      </trkpt>
      <trkpt lat="48.423794" lon="8.2871">
        <time>1970-01-01T00:00:00+00:00</time>
        <ele>721.0</ele>
      </trkpt>
      <trkpt lat="48.423579" lon="8.287404">
        <time>1970-01-01T00:00:00+00:00</time>
        <ele>723.0</ele>
      </trkpt>
      <trkpt lat="48.423204" lon="8.288006">
        <time>1970-01-01T00:00:00+00:00</time>
        <ele>726.0</ele>
      </trkpt>
      <trkpt lat="48.423085" lon="8.288235">
        <time>1970-01-01T00:00:00+00:00</time>
        <ele>728.0</ele>
      </trkpt>
      <trkpt lat="48.42277" lon="8.289044">
        <time>1970-01-01T00:00:00+00:00</time>
        <ele>739.0</ele>
      </trkpt>
      <trkpt lat="48.422445" lon="8.289678">
        <time>1970-01-01T00:00:00+00:00</time>
        <ele>732.0</ele>
      </trkpt>
      <trkpt lat="48.42234" lon="8.289988">
        <time>1970-01-01T00:00:00+00:00</time>
        <ele>729.0</ele>
      </trkpt>
      <trkpt lat="48.422278" lon="8.290285">
        <time>1970-01-01T00:00:00+00:00</time>
        <ele>727.0</ele>
      </trkpt>
      <trkpt lat="48.422218" lon="8.290895">
        <time>1970-01-01T00:00:00+00:00</time>
        <ele>726.0</ele>
      </trkpt>
      <trkpt lat="48.422207" lon="8.291222">
        <time>1970-01-01T00:00:00+00:00</time>
        <ele>728.0</ele>
      </trkpt>
      <trkpt lat="48.422169" lon="8.291435">
        <time>1970-01-01T00:00:00+00:00</time>
        <ele>728.0</ele>
      </trkpt>
      <trkpt lat="48.421873" lon="8.292267">
        <time>1970-01-01T00:00:00+00:00</time>
        <ele>721.0</ele>
      </trkpt>
      <trkpt lat="48.421782" lon="8.292839">
        <time>1970-01-01T00:00:00+00:00</time>
        <ele>723.0</ele>
      </trkpt>
      <trkpt lat="48.421756" lon="8.293109">
        <time>1970-01-01T00:00:00+00:00</time>
        <ele>722.0</ele>
      </trkpt>
      <trkpt lat="48.421761" lon="8.293408">
        <time>1970-01-01T00:00:00+00:00</time>
        <ele>721.0</ele>
      </trkpt>
      <trkpt lat="48.421782" lon="8.293605">
        <time>1970-01-01T00:00:00+00:00</time>
        <ele>721.0</ele>
      </trkpt>
      <trkpt lat="48.421816" lon="8.293746">
        <time>1970-01-01T00:00:00+00:00</time>
        <ele>722.0</ele>
      </trkpt>
      <trkpt lat="48.421916" lon="8.294067">
        <time>1970-01-01T00:00:00+00:00</time>
        <ele>725.0</ele>
      </trkpt>
      <trkpt lat="48.422014" lon="8.294378">
        <time>1970-01-01T00:00:00+00:00</time>
        <ele>729.0</ele>
      </trkpt>
      <trkpt lat="48.422069" lon="8.294616">
        <time>1970-01-01T00:00:00+00:00</time>
        <ele>730.0</ele>
      </trkpt>
      <trkpt lat="48.422103" lon="8.294873">
        <time>1970-01-01T00:00:00+00:00</time>
        <ele>731.0</ele>
      </trkpt>
      <trkpt lat="48.422128" lon="8.295226">
        <time>1970-01-01T00:00:00+00:00</time>
        <ele>732.0</ele>
      </trkpt>
      <trkpt lat="48.422124" lon="8.295542">
        <time>1970-01-01T00:00:00+00:00</time>
        <ele>734.0</ele>
      </trkpt>
      <trkpt lat="48.422077" lon="8.296234">
        <time>1970-01-01T00:00:00+00:00</time>
        <ele>739.0</ele>
      </trkpt>
      <trkpt lat="48.422082" lon="8.296308">
        <time>1970-01-01T00:00:00+00:00</time>
        <ele>739.0</ele>
      </trkpt>
      <trkpt lat="48.42212" lon="8.29638">
        <time>1970-01-01T00:00:00+00:00</time>
        <ele>739.0</ele>
      </trkpt>
      <trkpt lat="48.422186" lon="8.296426">
        <time>1970-01-01T00:00:00+00:00</time>
        <ele>739.0</ele>
      </trkpt>
      <trkpt lat="48.42214" lon="8.296474">
        <time>1970-01-01T00:00:00+00:00</time>
        <ele>739.0</ele>
      </trkpt>
      <trkpt lat="48.422126" lon="8.296535">
        <time>1970-01-01T00:00:00+00:00</time>
        <ele>739.0</ele>
      </trkpt>
      <trkpt lat="48.422095" lon="8.296593">
        <time>1970-01-01T00:00:00+00:00</time>
        <ele>739.0</ele>
      </trkpt>
      <trkpt lat="48.421939" lon="8.297046">
        <time>1970-01-01T00:00:00+00:00</time>
        <ele>738.0</ele>
      </trkpt>
      <trkpt lat="48.421445" lon="8.298192">
        <time>1970-01-01T00:00:00+00:00</time>
        <ele>742.0</ele>
      </trkpt>
      <trkpt lat="48.421347" lon="8.298545">
        <time>1970-01-01T00:00:00+00:00</time>
        <ele>746.0</ele>
      </trkpt>
      <trkpt lat="48.421224" lon="8.299236">
        <time>1970-01-01T00:00:00+00:00</time>
        <ele>758.0</ele>
      </trkpt>
      <trkpt lat="48.421042" lon="8.299956">
        <time>1970-01-01T00:00:00+00:00</time>
        <ele>762.0</ele>
      </trkpt>
      <trkpt lat="48.420848" lon="8.300319">
        <time>1970-01-01T00:00:00+00:00</time>
        <ele>762.0</ele>
      </trkpt>
      <trkpt lat="48.420654" lon="8.300566">
        <time>1970-01-01T00:00:00+00:00</time>
        <ele>762.0</ele>
      </trkpt>
      <trkpt lat="48.42033" lon="8.300851">
        <time>1970-01-01T00:00:00+00:00</time>
        <ele>759.0</ele>
      </trkpt>
      <trkpt lat="48.419632" lon="8.301148">
        <time>1970-01-01T00:00:00+00:00</time>
        <ele>765.0</ele>
      </trkpt>
      <trkpt lat="48.419406" lon="8.301288">
        <time>1970-01-01T00:00:00+00:00</time>
        <ele>764.0</ele>
      </trkpt>
      <trkpt lat="48.41918" lon="8.301367">
        <time>1970-01-01T00:00:00+00:00</time>
        <ele>763.0</ele>
      </trkpt>
      <trkpt lat="48.418363" lon="8.301426">
        <time>1970-01-01T00:00:00+00:00</time>
        <ele>761.0</ele>
      </trkpt>
      <trkpt lat="48.418085" lon="8.301427">
        <time>1970-01-01T00:00:00+00:00</time>
        <ele>758.0</ele>
      </trkpt>
      <trkpt lat="48.417793" lon="8.30133">
        <time>1970-01-01T00:00:00+00:00</time>
        <ele>765.0</ele>
      </trkpt>
      <trkpt lat="48.417577" lon="8.301232">
        <time>1970-01-01T00:00:00+00:00</time>
        <ele>765.0</ele>
      </trkpt>
      <trkpt lat="48.417422" lon="8.301109">
        <time>1970-01-01T00:00:00+00:00</time>
        <ele>762.0</ele>
      </trkpt>
      <trkpt lat="48.416937" lon="8.300738">
        <time>1970-01-01T00:00:00+00:00</time>
        <ele>763.0</ele>
      </trkpt>
      <trkpt lat="48.416705" lon="8.300613">
        <time>1970-01-01T00:00:00+00:00</time>
        <ele>761.0</ele>
      </trkpt>
      <trkpt lat="48.416473" lon="8.300564">
        <time>1970-01-01T00:00:00+00:00</time>
        <ele>758.0</ele>
      </trkpt>
      <trkpt lat="48.416281" lon="8.300588">
        <time>1970-01-01T00:00:00+00:00</time>
        <ele>756.0</ele>
      </trkpt>
      <trkpt lat="48.415582" lon="8.30091">
        <time>1970-01-01T00:00:00+00:00</time>
        <ele>746.0</ele>
      </trkpt>
      <trkpt lat="48.415582" lon="8.30091">
        <time>1970-01-01T00:00:00+00:00</time>
        <ele>746.0</ele>
      </trkpt>
      <trkpt lat="48.416281" lon="8.300588">
        <time>1970-01-01T00:00:00+00:00</time>
        <ele>756.0</ele>
      </trkpt>
      <trkpt lat="48.416473" lon="8.300564">
        <time>1970-01-01T00:00:00+00:00</time>
        <ele>758.0</ele>
      </trkpt>
      <trkpt lat="48.416705" lon="8.300613">
        <time>1970-01-01T00:00:00+00:00</time>
        <ele>761.0</ele>
      </trkpt>
      <trkpt lat="48.416937" lon="8.300738">
        <time>1970-01-01T00:00:00+00:00</time>
        <ele>763.0</ele>
      </trkpt>
      <trkpt lat="48.417422" lon="8.301109">
        <time>1970-01-01T00:00:00+00:00</time>
        <ele>762.0</ele>
      </trkpt>
      <trkpt lat="48.417577" lon="8.301232">
        <time>1970-01-01T00:00:00+00:00</time>
        <ele>765.0</ele>
      </trkpt>
      <trkpt lat="48.417793" lon="8.30133">
        <time>1970-01-01T00:00:00+00:00</time>
        <ele>765.0</ele>
      </trkpt>
      <trkpt lat="48.418085" lon="8.301427">
        <time>1970-01-01T00:00:00+00:00</time>
        <ele>758.0</ele>
      </trkpt>
      <trkpt lat="48.418363" lon="8.301426">
        <time>1970-01-01T00:00:00+00:00</time>
        <ele>761.0</ele>
      </trkpt>
      <trkpt lat="48.41918" lon="8.301367">
        <time>1970-01-01T00:00:00+00:00</time>
        <ele>763.0</ele>
      </trkpt>
      <trkpt lat="48.419406" lon="8.301288">
        <time>1970-01-01T00:00:00+00:00</time>
        <ele>764.0</ele>
      </trkpt>
      <trkpt lat="48.419632" lon="8.301148">
        <time>1970-01-01T00:00:00+00:00</time>
        <ele>765.0</ele>
      </trkpt>
      <trkpt lat="48.42033" lon="8.300851">
        <time>1970-01-01T00:00:00+00:00</time>
        <ele>759.0</ele>
      </trkpt>
      <trkpt lat="48.420654" lon="8.300566">
        <time>1970-01-01T00:00:00+00:00</time>
        <ele>762.0</ele>
      </trkpt>
      <trkpt lat="48.420848" lon="8.300319">
        <time>1970-01-01T00:00:00+00:00</time>
        <ele>762.0</ele>
      </trkpt>
      <trkpt lat="48.421042" lon="8.299956">
        <time>1970-01-01T00:00:00+00:00</time>
        <ele>762.0</ele>
      </trkpt>
      <trkpt lat="48.421224" lon="8.299236">
        <time>1970-01-01T00:00:00+00:00</time>
        <ele>758.0</ele>
      </trkpt>
      <trkpt lat="48.421347" lon="8.298545">
        <time>1970-01-01T00:00:00+00:00</time>
        <ele>746.0</ele>
      </trkpt>
      <trkpt lat="48.421445" lon="8.298192">
        <time>1970-01-01T00:00:00+00:00</time>
        <ele>742.0</ele>
      </trkpt>
      <trkpt lat="48.421939" lon="8.297046">
        <time>1970-01-01T00:00:00+00:00</time>
        <ele>738.0</ele>
      </trkpt>
      <trkpt lat="48.422095" lon="8.296593">
        <time>1970-01-01T00:00:00+00:00</time>
        <ele>739.0</ele>
      </trkpt>
      <trkpt lat="48.422126" lon="8.296535">
        <time>1970-01-01T00:00:00+00:00</time>
        <ele>739.0</ele>
      </trkpt>
      <trkpt lat="48.42214" lon="8.296474">
        <time>1970-01-01T00:00:00+00:00</time>
        <ele>739.0</ele>
      </trkpt>
      <trkpt lat="48.422186" lon="8.296426">
        <time>1970-01-01T00:00:00+00:00</time>
        <ele>739.0</ele>
      </trkpt>
      <trkpt lat="48.42212" lon="8.29638">
        <time>1970-01-01T00:00:00+00:00</time>
        <ele>739.0</ele>
      </trkpt>
      <trkpt lat="48.422082" lon="8.296308">
        <time>1970-01-01T00:00:00+00:00</time>
        <ele>739.0</ele>
      </trkpt>
      <trkpt lat="48.422077" lon="8.296234">
        <time>1970-01-01T00:00:00+00:00</time>
        <ele>739.0</ele>
      </trkpt>
      <trkpt lat="48.422124" lon="8.295542">
        <time>1970-01-01T00:00:00+00:00</time>
        <ele>734.0</ele>
      </trkpt>
      <trkpt lat="48.422128" lon="8.295226">
        <time>1970-01-01T00:00:00+00:00</time>
        <ele>732.0</ele>
      </trkpt>
      <trkpt lat="48.422103" lon="8.294873">
        <time>1970-01-01T00:00:00+00:00</time>
        <ele>731.0</ele>
      </trkpt>
      <trkpt lat="48.422069" lon="8.294616">
        <time>1970-01-01T00:00:00+00:00</time>
        <ele>730.0</ele>
      </trkpt>
      <trkpt lat="48.422014" lon="8.294378">
        <time>1970-01-01T00:00:00+00:00</time>
        <ele>729.0</ele>
      </trkpt>
      <trkpt lat="48.421916" lon="8.294067">
        <time>1970-01-01T00:00:00+00:00</time>
        <ele>725.0</ele>
      </trkpt>
      <trkpt lat="48.421816" lon="8.293746">
        <time>1970-01-01T00:00:00+00:00</time>
        <ele>722.0</ele>
      </trkpt>
      <trkpt lat="48.421782" lon="8.293605">
        <time>1970-01-01T00:00:00+00:00</time>
        <ele>721.0</ele>
      </trkpt>
      <trkpt lat="48.421761" lon="8.293408">
        <time>1970-01-01T00:00:00+00:00</time>
        <ele>721.0</ele>
      </trkpt>
      <trkpt lat="48.421756" lon="8.293109">
        <time>1970-01-01T00:00:00+00:00</time>
        <ele>722.0</ele>
      </trkpt>
      <trkpt lat="48.421782" lon="8.292839">
        <time>1970-01-01T00:00:00+00:00</time>
        <ele>723.0</ele>
      </trkpt>
      <trkpt lat="48.421873" lon="8.292267">
        <time>1970-01-01T00:00:00+00:00</time>
        <ele>721.0</ele>
      </trkpt>
      <trkpt lat="48.422169" lon="8.291435">
        <time>1970-01-01T00:00:00+00:00</time>
        <ele>728.0</ele>
      </trkpt>
      <trkpt lat="48.422207" lon="8.291222">
        <time>1970-01-01T00:00:00+00:00</time>
        <ele>728.0</ele>
      </trkpt>
      <trkpt lat="48.422218" lon="8.290895">
        <time>1970-01-01T00:00:00+00:00</time>
        <ele>726.0</ele>
      </trkpt>
      <trkpt lat="48.422278" lon="8.290285">
        <time>1970-01-01T00:00:00+00:00</time>
        <ele>727.0</ele>
      </trkpt>
      <trkpt lat="48.42234" lon="8.289988">
        <time>1970-01-01T00:00:00+00:00</time>
        <ele>729.0</ele>
      </trkpt>
      <trkpt lat="48.422445" lon="8.289678">
        <time>1970-01-01T00:00:00+00:00</time>
        <ele>732.0</ele>
      </trkpt>
      <trkpt lat="48.42277" lon="8.289044">
        <time>1970-01-01T00:00:00+00:00</time>
        <ele>739.0</ele>
      </trkpt>
      <trkpt lat="48.423085" lon="8.288235">
        <time>1970-01-01T00:00:00+00:00</time>
        <ele>728.0</ele>
      </trkpt>
      <trkpt lat="48.423204" lon="8.288006">
        <time>1970-01-01T00:00:00+00:00</time>
        <ele>726.0</ele>
      </trkpt>
      <trkpt lat="48.423579" lon="8.287404">
        <time>1970-01-01T00:00:00+00:00</time>
        <ele>723.0</ele>
      </trkpt>
      <trkpt lat="48.423794" lon="8.2871">
        <time>1970-01-01T00:00:00+00:00</time>
        <ele>721.0</ele>
      </trkpt>
      <trkpt lat="48.423886" lon="8.28702">
        <time>1970-01-01T00:00:00+00:00</time>
        <ele>724.0</ele>
      </trkpt>
      <trkpt lat="48.423935" lon="8.286947">
        <time>1970-01-01T00:00:00+00:00</time>
        <ele>725.0</ele>
      </trkpt>
      <trkpt lat="48.424009" lon="8.28674">
        <time>1970-01-01T00:00:00+00:00</time>
        <ele>724.0</ele>
      </trkpt>
      <trkpt lat="48.424023" lon="8.286646">
        <time>1970-01-01T00:00:00+00:00</time>
        <ele>722.0</ele>
      </trkpt>
      <trkpt lat="48.424055" lon="8.286522">
        <time>1970-01-01T00:00:00+00:00</time>
        <ele>720.0</ele>
      </trkpt>
      <trkpt lat="48.424048" lon="8.286402">
        <time>1970-01-01T00:00:00+00:00</time>
        <ele>715.0</ele>
      </trkpt>
      <trkpt lat="48.424051" lon="8.286078">
        <time>1970-01-01T00:00:00+00:00</time>
        <ele>707.0</ele>
      </trkpt>
      <trkpt lat="48.424043" lon="8.285994">
        <time>1970-01-01T00:00:00+00:00</time>
        <ele>705.0</ele>
      </trkpt>
      <trkpt lat="48.424054" lon="8.285943">
        <time>1970-01-01T00:00:00+00:00</time>
        <ele>705.0</ele>
      </trkpt>
      <trkpt lat="48.424059" lon="8.285769">
        <time>1970-01-01T00:00:00+00:00</time>
        <ele>703.0</ele>
      </trkpt>
      <trkpt lat="48.42398" lon="8.285418">
        <time>1970-01-01T00:00:00+00:00</time>
        <ele>695.0</ele>
      </trkpt>
      <trkpt lat="48.423957" lon="8.285218">
        <time>1970-01-01T00:00:00+00:00</time>
        <ele>693.0</ele>
      </trkpt>
      <trkpt lat="48.424039" lon="8.284513">
        <time>1970-01-01T00:00:00+00:00</time>
        <ele>696.0</ele>
      </trkpt>
      <trkpt lat="48.424057" lon="8.284404">
        <time>1970-01-01T00:00:00+00:00</time>
        <ele>695.0</ele>
      </trkpt>
      <trkpt lat="48.424069" lon="8.284331">
        <time>1970-01-01T00:00:00+00:00</time>
        <ele>694.0</ele>
      </trkpt>
      <trkpt lat="48.424173" lon="8.283866">
        <time>1970-01-01T00:00:00+00:00</time>
        <ele>690.0</ele>
      </trkpt>
      <trkpt lat="48.424344" lon="8.28288">
        <time>1970-01-01T00:00:00+00:00</time>
        <ele>686.0</ele>
      </trkpt>
      <trkpt lat="48.424374" lon="8.282665">
        <time>1970-01-01T00:00:00+00:00</time>
        <ele>682.0</ele>
      </trkpt>
      <trkpt lat="48.424358" lon="8.28254">
        <time>1970-01-01T00:00:00+00:00</time>
        <ele>680.0</ele>
      </trkpt>
      <trkpt lat="48.424333" lon="8.282498">
        <time>1970-01-01T00:00:00+00:00</time>
        <ele>680.0</ele>
      </trkpt>
      <trkpt lat="48.424395" lon="8.281766">
        <time>1970-01-01T00:00:00+00:00</time>
        <ele>679.0</ele>
      </trkpt>
      <trkpt lat="48.424402" lon="8.281675">
        <time>1970-01-01T00:00:00+00:00</time>
        <ele>679.0</ele>
      </trkpt>
      <trkpt lat="48.424482" lon="8.281335">
        <time>1970-01-01T00:00:00+00:00</time>
        <ele>680.0</ele>
      </trkpt>
      <trkpt lat="48.42472" lon="8.2803">
        <time>1970-01-01T00:00:00+00:00</time>
        <ele>684.0</ele>
      </trkpt>
      <trkpt lat="48.424755" lon="8.28009">
        <time>1970-01-01T00:00:00+00:00</time>
        <ele>686.0</ele>
      </trkpt>
      <trkpt lat="48.424797" lon="8.279678">
        <time>1970-01-01T00:00:00+00:00</time>
        <ele>688.0</ele>
      </trkpt>
      <trkpt lat="48.424856" lon="8.278907">
        <time>1970-01-01T00:00:00+00:00</time>
        <ele>695.0</ele>
      </trkpt>
      <trkpt lat="48.424886" lon="8.278637">
        <time>1970-01-01T00:00:00+00:00</time>
        <ele>697.0</ele>
      </trkpt>
      <trkpt lat="48.425074" lon="8.277618">
        <time>1970-01-01T00:00:00+00:00</time>
        <ele>704.0</ele>
      </trkpt>
      <trkpt lat="48.425176" lon="8.277172">
        <time>1970-01-01T00:00:00+00:00</time>
        <ele>706.0</ele>
      </trkpt>
      <trkpt lat="48.425293" lon="8.276747">
        <time>1970-01-01T00:00:00+00:00</time>
        <ele>710.0</ele>
      </trkpt>
      <trkpt lat="48.425413" lon="8.27634">
        <time>1970-01-01T00:00:00+00:00</time>
        <ele>717.0</ele>
      </trkpt>
      <trkpt lat="48.425719" lon="8.275447">
        <time>1970-01-01T00:00:00+00:00</time>
        <ele>721.0</ele>
      </trkpt>
      <trkpt lat="48.42586" lon="8.275018">
        <time>1970-01-01T00:00:00+00:00</time>
        <ele>729.0</ele>
      </trkpt>
      <trkpt lat="48.425931" lon="8.274837">
        <time>1970-01-01T00:00:00+00:00</time>
        <ele>738.0</ele>
      </trkpt>
    </trkseg>
  </trk>
</gpx>
